{"data":{"norad_id":48286,"epoch":"2026-05-25T04:40:44.866272Z","epoch_age_seconds":65002,"freshness":"FRESH","line1":"1 48286U 21036L   26145.19496373 -.00004669  00000+0 -13876-3 0  9994","line2":"2 48286  53.1593  79.6215 0001270  90.6901 269.4246 15.31700914280128","mean_motion":15.31700914,"eccentricity":0.000127,"inclination_deg":53.1593,"raan_deg":79.6215,"arg_perigee_deg":90.6901,"mean_anomaly_deg":269.4246,"bstar":-0.00013876,"rev_number":28012,"period_min":94.013131861329,"perigee_km":469.86746360819,"apogee_km":471.60707767293,"semimajor_km":6848.8742706406,"source":"CELESTRAK","updated_at":"2026-05-25T13:38:16.673720Z"}}